Regional Weather Roundup
Issued by NWS

Home | Current Version | Previous Version | Text Only | Print | Product List | Glossary Off
Versions: 1 2 3 4 5 6 7 8 9 10 11 12 13 14 15 16 17 18 19 20 21 22 23 24 25 26 27 28 29 30 31 32 33 34 35 36 37 38 39 40 41 42 43 44 45 46 47 48 49 50

000
ASUS43 KLOT 050700
RWRIL

ILLINOIS REGIONAL WEATHER ROUNDUP
NATIONAL WEATHER SERVICE CHICAGO/ROMEOVILLE IL
200 AM CDT SAT SEP 05 2015

NOTE: "FAIR" INDICATES FEW OR NO CLOUDS BELOW 12,000 FEET WITH NO
SIGNIFICANT WEATHER AND/OR OBSTRUCTIONS TO VISIBILITY.

* THESE STATIONS ARE NOT UNDER NWS QUALITY CONTROL. THEY ALSO MAY NOT
  REPORT WEATHER SUCH AS PRECIPITATION OR FOG.

ILZ001-002-007-009-015-016-024-050800-
NORTHWEST ILLINOIS

CITY           SKY/WX    TMP DP  RH WIND       PRES   REMARKS
MOLINE         PTCLDY    76  68  76 CALM      30.01S
STERLING*      CLEAR     72  70  94 E3        30.01S
$$

ILZ003-004-008-010-011-017-018-050800-
NORTH CENTRAL ILLINOIS

CITY           SKY/WX    TMP DP  RH WIND       PRES   REMARKS
ROCKFORD       PTCLDY    70  66  87 SE3       30.06R
FREEPORT*      MOCLDY    68  67  96 CALM      30.06S FOG
$$

ILZ005-006-012>014-019>023-050800-
NORTHEAST ILLINOIS

CITY           SKY/WX    TMP DP  RH WIND       PRES   REMARKS
CHICAGO-OHARE  PTCLDY    72  67  84 E3        30.04S
CHICAGO-MIDWAY PTCLDY    74  67  78 E5        30.04F
AURORA         PTCLDY    69  66  90 E5        30.05S
LANSING*       CLEAR     68  67  96 E3        30.05S
WAUKEGAN       CLEAR     65  65 100 CALM      30.05F FOG
DUPAGE AIRPORT CLEAR     71  66  84 CALM      30.04F
WHEELING       NOT AVBL
NORTHERLY ISL    N/A     71  68  90 NE2         N/A
$$

LMZ740>746-050800-
SOUTHERN LAKE MICHIGAN

STATION/POSITION SKY/WX   TEMP    WIND        PRES    VSBY  WAVE
                          AIR SEA DIR/SP/G                  HT/PER
                          (F)     (DEG/KT/KT) (MB)    (MI)  (FT/S)
SOUTHERN BUOY              69 71  160/  2/  4 1017.5F         1
WILMETTE HARBOR            71 71  270/  4/  4   N/A           1/ 3
HARRISON CRIB              71      90/  6/  6   N/A
BURNHAM HARBOR             70     330/  2/  3   N/A
CALUMET HARBOR             72      20/  2/  3   N/A
BURNS HARBOR               73     340/  2/  3 1018.3S
MICHIGAN CITY              71     120/  5/  6   N/A
MICHIGAN CITY 6N           73 74  130/  4/  8   N/A           1
ST. JOSEPH                 72 75  180/  4/  6   N/A           1
$$

ILZ025>027-034>036-040-047-049-050-058-095>099-050800-
WEST-CENTRAL ILLINOIS

CITY           SKY/WX    TMP DP  RH WIND       PRES   REMARKS
QUINCY         CLEAR     76  69  79 S3        30.03S
$$

ILZ028>032-037-038-041>044-048-051>054-059>061-050800-
CENTRAL ILLINOIS

CITY           SKY/WX    TMP DP  RH WIND       PRES   REMARKS
DECATUR        CLEAR     71  61  70 CALM      30.05S
PEORIA         CLEAR     76  67  73 SW3       30.04S
SPRINGFIELD    CLEAR     74  67  78 S6        30.04F
TAYLORVILLE    NOT AVBL
$$

ILZ033-039-045-046-055>057-062-063-050800-
EAST-CENTRAL ILLINOIS

CITY           SKY/WX    TMP DP  RH WIND       PRES   REMARKS
CHAMPAIGN      CLEAR     67  64  90 CALM      30.05S
MATTOON        PTCLDY    70  66  87 SE5       30.05R
$$

ILZ079-100>102-050800-
SOUTHWEST ILLINOIS

CITY           SKY/WX    TMP DP  RH WIND       PRES   REMARKS
BELLEVILLE     CLEAR     72  72 100 CALM      30.03S FOG
CAHOKIA*       CLEAR     74  69  85 CALM      30.03F
SPARTA*        CLEAR     73  71  93 CALM      30.05F
$$

ILZ064>066-069>071-074>076-080>082-084>086-088>090-092>094-050800-
SOUTH-CENTRAL ILLINOIS

CITY           SKY/WX    TMP DP  RH WIND       PRES   REMARKS
CARBONDALE     FOG       69  68  96 CALM      30.04F VSB 1/2
MT. VERNON     CLEAR     70  63  78 N5        30.06S
$$

ILZ067-068-072-073-078-083-087-091-050800-
SOUTHEAST ILLINOIS

CITY           SKY/WX    TMP DP  RH WIND       PRES   REMARKS
LAWRENCEVILLE  MOCLDY    74  69  85 CALM      30.06R
ROBINSON*      MOCLDY    71  67  88 CALM      30.06S
$$

ABBREVIATIONS USED IN REMARKS
   TC - TEMPERATURE IN CELSIUS
  WCI - WIND CHILL INDEX
   HX - HEAT INDEX
  VSB - VISIBILITY
$$



USA.gov is the U.S. government's official web portal to all federal, state and local government web resources and services.